[[{"header":{"parameterUnit":"m.s-1","parameterCategory":1,"la1":30.2992,"la2":30.254,"lo1":-89.0895,"lo2":-89.0443,"dy":0.0025,"dx":0.0025,"nx":19,"ny":19,"refTime":"2026-04-26T03:00:00:Z","depth":0,"parameterNumber":2,"parameterNumberName":"U-component_of_WINDS"},"data":[0,0,0,-2.4021,-2.4022,-2.4082,-2.4082,-2.4161,-2.4162,0,0,0,0,0,0,0,0,0,0,0,-2.4004,-2.4004,-2.4021,-2.4022,-2.4082,-2.4082,-2.4161,-2.4162,0,0,0,0,0,0,0,0,0,0,0,-2.4004,-2.4004,-2.4005,-2.4022,-2.4082,-2.4082,-2.4161,-2.4115,0,0,0,0,0,0,0,0,0,0,-2.4056,-2.4042,-2.4004,-2.4005,-2.4023,-2.4082,-2.4082,-2.4113,-2.4118,-2.4135,0,-2.415,0,-2.4157,-2.4167,-2.4168,0,0,0,-2.4021,-2.4037,-2.4053,-2.4005,-2.4023,-2.4082,-2.4055,-2.4116,-2.4121,-2.4142,-2.4151,-2.4154,-2.4159,-2.4168,-2.4168,-2.4269,-2.4269,0,0,-2.4018,-2.4015,-2.4049,-2.4057,-2.4047,-2.4053,-2.4057,-2.4119,-2.4129,-2.4152,-2.4156,-2.416,-2.4168,-2.4169,-2.4268,-2.4269,0,0,0,-2.4009,-2.4013,-2.4027,-2.4053,-2.4064,-2.4055,-2.4059,-2.4127,-2.4131,-2.4157,-2.4161,-2.4169,-2.417,-2.4268,-2.4268,-2.429,0,0,0,-2.4007,-2.4008,-2.4025,-2.4024,-2.4063,-2.4096,-2.4065,-2.4127,-2.4134,-2.4161,-2.4169,-2.4171,-2.4267,-2.4268,-2.4288,-2.43,0,0,0,-2.4,-2.4007,-2.4016,-2.4024,-2.405,-2.4095,-2.4103,-2.4129,-2.4137,-2.4168,-2.4171,-2.4267,-2.4268,-2.4286,-2.4297,-2.4325,0,0,0,-2.3991,-2.4034,-2.4016,-2.4066,-2.4049,-2.4108,-2.4103,-2.4147,-2.4176,-2.4169,-2.4267,-2.4268,-2.4286,-2.4296,-2.4323,-2.4346,-2.4356,0,0,-2.4044,-2.4041,-2.407,-2.4056,-2.4117,-2.4099,-2.4164,-2.4193,-2.4199,-2.4245,-2.4248,-2.4288,-2.4297,-2.4324,-2.4414,-2.4422,0,0,0,-2.4086,-2.4107,-2.4124,-2.4152,-2.4176,-2.4197,-2.4217,-2.4228,-2.4267,-2.4222,-2.4307,-2.4312,-2.4328,-2.4339,-2.4346,-2.4359,-2.4274,-2.4274,-2.4274,-2.4156,-2.4161,-2.4211,-2.4223,-2.425,-2.4271,-2.4293,-2.4312,-2.4309,-2.4329,-2.4342,-2.4396,-2.4409,-2.4414,-2.4428,-2.4356,-2.4356,-2.4356,-2.4357,-2.4234,-2.4264,-2.426,-2.4306,-2.4311,-2.4351,-2.4372,-2.4369,-2.4407,-2.4387,-2.4401,-2.4378,-2.4423,-2.4435,-2.4358,-2.4358,-2.4358,-2.4358,-2.4357,-2.4279,-2.4294,-2.4307,-2.4348,-2.4379,-2.4391,-2.4426,-2.443,-2.4434,-2.4449,-2.4463,-2.4462,-2.4462,-2.4456,-2.4456,-2.4456,-2.4456,-2.4456,-2.4456,-2.432,-2.4334,-2.4364,-2.4393,-2.4411,-2.4436,-2.4458,-2.4476,-2.4497,-2.4498,-2.4498,-2.4493,-2.4427,-2.4409,-2.4459,-2.4459,-2.4458,-2.4458,-2.4458,-2.4395,-2.4379,-2.4424,-2.4442,-2.4477,-2.4507,-2.4512,-2.4549,-2.4565,-2.4583,-2.4575,-2.4526,-2.4523,-2.4518,-2.4503,-2.4575,-2.4575,-2.4575,-2.4575,-2.4432,-2.4431,-2.4478,-2.4507,-2.4536,-2.4546,-2.4597,-2.4615,-2.463,-2.4641,-2.4631,-2.4613,-2.4608,-2.4607,-2.46,-2.4587,-2.4678,-2.4678,-2.4678,-2.4478,-2.448,-2.4522,-2.4537,-2.4565,-2.4588,-2.4636,-2.467,-2.4685,-2.4682,-2.4648,-2.4644,-2.4615,-2.4605,-2.4599,-2.4588,-2.4563,0,0]},{"header":{"parameterUnit":"m.s-1","parameterCategory":1,"la1":30.2992,"la2":30.254,"lo1":-89.0895,"lo2":-89.0443,"dy":0.0025,"dx":0.0025,"nx":19,"ny":19,"refTime":"2026-04-26T03:00:00:Z","depth":0,"parameterNumber":3,"parameterNumberName":"V-component_of_WINDS"},"data":[0,0,0,3.7873,3.7874,3.7927,3.7927,3.8004,3.8005,0,0,0,0,0,0,0,0,0,0,0,3.7864,3.7864,3.7873,3.7874,3.7927,3.7927,3.8004,3.8005,0,0,0,0,0,0,0,0,0,0,0,3.7863,3.7864,3.7865,3.7875,3.7927,3.7927,3.8003,3.796,0,0,0,0,0,0,0,0,0,0,3.7907,3.7905,3.7864,3.7865,3.7875,3.7927,3.7927,3.7958,3.7963,3.7984,0,3.8006,0,3.8007,3.801,3.8011,0,0,0,3.7869,3.7901,3.791,3.7865,3.7875,3.7927,3.7902,3.7961,3.7966,3.7991,3.8007,3.8009,3.8008,3.8011,3.8011,3.8155,3.8156,0,0,3.7866,3.7876,3.7906,3.7914,3.7907,3.79,3.7903,3.7964,3.7981,3.8007,3.8011,3.8009,3.8012,3.8012,3.8154,3.8155,0,0,0,3.7861,3.7874,3.7881,3.7911,3.792,3.7902,3.7906,3.7978,3.798,3.8011,3.801,3.8012,3.8013,3.8153,3.8154,3.821,0,0,0,3.7859,3.7871,3.788,3.7887,3.7919,3.795,3.7919,3.7976,3.7982,3.801,3.8012,3.8014,3.8152,3.8153,3.8207,3.8235,0,0,0,3.7858,3.7871,3.7881,3.7887,3.7911,3.7949,3.7954,3.7977,3.7982,3.8011,3.8014,3.8151,3.8153,3.8203,3.8229,3.8277,0,0,0,3.7859,3.7929,3.7882,3.796,3.791,3.7983,3.7953,3.8006,3.8038,3.8012,3.8152,3.8154,3.8202,3.8226,3.8273,3.8319,3.8339,0,0,3.7952,3.794,3.7985,3.7945,3.8029,3.7974,3.8066,3.8085,3.8077,3.8129,3.8132,3.8208,3.8229,3.8276,3.8445,3.8461,0,0,0,3.8018,3.8051,3.8071,3.8102,3.8119,3.8136,3.814,3.8147,3.8191,3.8106,3.8237,3.8249,3.8276,3.8298,3.8311,3.8334,3.8164,3.8164,3.8164,3.8165,3.8153,3.8227,3.8223,3.8254,3.8258,3.8282,3.8292,3.8269,3.8301,3.8316,3.842,3.8446,3.8456,3.848,3.8338,3.8339,3.8339,3.8339,3.8302,3.8346,3.8317,3.8379,3.8366,3.8417,3.8424,3.8407,3.8452,3.8407,3.843,3.8383,3.8474,3.8494,3.8343,3.8342,3.8342,3.8341,3.8341,3.8397,3.8417,3.8425,3.8471,3.8507,3.8499,3.8545,3.8531,3.8518,3.8541,3.8557,3.8556,3.8554,3.855,3.855,3.8551,3.8551,3.8551,3.8551,3.8493,3.8501,3.8542,3.8567,3.8587,3.861,3.8616,3.8634,3.8651,3.8637,3.8637,3.8613,3.8484,3.8453,3.8557,3.8556,3.8555,3.8555,3.8554,3.8637,3.8603,3.8667,3.8686,3.8716,3.8753,3.8735,3.8774,3.8787,3.881,3.8781,3.8688,3.8674,3.8663,3.8638,3.8783,3.8783,3.8783,3.8783,3.8719,3.8711,3.8774,3.8806,3.8836,3.8827,3.8899,3.8905,3.8905,3.8912,3.8889,3.8853,3.8842,3.8835,3.882,3.8796,3.8978,3.8978,3.8978,3.8808,3.8802,3.8867,3.8868,3.889,3.8909,3.8977,3.9015,3.9007,3.8986,3.8918,3.891,3.8851,3.8833,3.881,3.8788,3.8743,0,0]}]]